Dewpoint
19 19 23 23 18 19 19 20 20 20 18 19 17 18 20 21 20 22 22 20 23 22 22 23 24 24 24 24 23 23 24 24 25 27 27 27 28 29 29 29 29 29 29 29 28 28 27 26 26 25 25 23 23 22 21 21 21 23 23 24 24 23 21 18 16 15 16 19 22 21 23 25 25 26 25 25 26 27 26 22 23 23 24 26 29
19 19 21 21 15 16 18 17 19 18 17 18 18 18 19 20 20 22 19 20 22 22 22 22 23 23 23 23 23 23 23 23 24 25 25 26 26 28 28 28 28 28 28 28 28 28 27 27 26 26 25 24 24 22 21 20 20 20 20 22 22 24 22 20 17 16 13 19 20 22 24 26 24 26 24 24 25 26 20 20 22 22 23 25 26
19 19 19 19 15 16 15 16 15 15 16 17 18 18 19 19 21 20 20 20 21 21 22 22 22 22 22 22 22 22 22 22 23 23 23 24 25 25 27 27 27 27 27 27 27 27 27 26 26 26 27 25 24 23 22 21 20 19 19 19 20 21 22 20 19 17 14 16 19 21 23 25 24 24 24 24 25 25 21 20 20 22 24 23 23
17 18 18 16 15 15 13 14 13 14 15 17 19 19 20 19 20 20 19 19 19 20 21 21 21 21 21 21 21 21 21 21 22 22 23 23 24 24 24 25 26 26 26 26 26 26 26 26 26 26 25 25 25 24 23 21 20 20 19 19 19 19 20 21 19 18 16 14 20 20 23 24 24 24 25 24 23 24 22 20 20 21 21 22 20
17 16 16 14 14 13 13 13 13 13 13 16 19 20 20 19 20 20 19 18 18 18 19 19 20 20 21 21 21 20 20 21 21 21 21 22 23 23 24 24 25 25 25 25 27 26 25 25 25 25 25 25 24 24 23 22 21 20 19 19 19 18 19 20 20 19 16 14 17 22 23 23 24 22 24 22 22 22 21 20 20 20 20 20 20
17 17 16 15 15 13 13 13 14 13 14 14 15 18 19 19 19 19 19 18 17 18 18 17 19 19 20 20 20 20 20 20 20 20 21 21 22 22 23 23 24 24 25 25 25 25 25 25 25 25 25 25 24 25 24 23 23 22 21 20 19 19 18 18 18 18 17 16 15 21 23 22 21 21 23 22 21 20 19 19 19 20 19 19 19
18 16 16 15 15 14 13 13 14 14 14 15 16 16 17 17 18 17 18 17 16 16 16 16 17 18 18 19 20 20 20 20 20 19 20 21 22 21 21 21 23 24 24 24 25 25 25 25 25 25 25 25 25 25 25 24 25 23 22 21 20 19 18 17 17 16 16 16 16 19 21 22 21 20 22 22 21 20 19 17 17 19 19 18 18
17 17 16 16 15 15 15 14 15 16 16 16 16 16 16 16 16 17 17 17 16 16 15 16 16 16 16 17 18 19 19 18 18 18 19 20 20 20 20 21 21 22 23 23 24 24 25 25 25 25 25 25 25 25 25 25 24 24 23 22 21 20 19 19 17 16 16 14 15 17 20 20 21 19 22 21 20 19 19 18 16 16 17 18 17
16 16 15 15 15 16 16 16 16 16 15 15 15 15 15 16 16 16 16 16 17 16 15 15 14 14 14 14 14 15 16 17 18 17 18 18 19 20 20 21 20 21 21 22 22 23 24 24 25 25 26 27 28 28 28 28 27 26 26 23 24 23 23 22 22 19 20 17 15 16 19 20 20 19 20 20 19 18 18 17 16 17 17 17 17
16 15 15 15 15 16 15 15 15 15 15 15 15 15 15 16 16 16 16 16 16 16 15 15 14 13 13 12 12 13 13 15 19 22 23 22 21 22 21 22 22 22 22 22 22 22 23 23 25 27 28 28 28 29 30 30 30 28 26 26 26 25 24 23 22 21 21 20 18 17 19 19 19 19 18 19 19 19 17 17 16 16 16 16 17
15 15 15 15 15 15 15 15 15 15 15 16 17 17 16 17 17 17 17 16 16 16 15 14 14 13 12 11 11 11 11 12 19 22 23 25 23 22 22 22 22 21 21 22 21 21 21 21 22 24 26 27 28 30 31 31 31 31 31 30 28 27 25 24 24 23 22 21 19 19 17 17 18 19 18 18 19 18 17 17 16 15 15 15 15
15 15 15 15 15 15 16 16 16 16 16 17 17 17 17 17 17 17 17 16 16 16 15 14 13 12 12 11 11 10 10 17 20 21 22 23 23 21 22 22 22 20 19 19 19 19 20 20 20 22 22 23 24 24 27 30 31 31 31 31 31 32 30 27 25 24 24 22 21 21 17 16 16 18 18 18 18 18 17 16 16 14 15 16 14
14 14 14 15 15 15 15 16 16 17 17 16 16 16 16 16 16 16 16 15 15 14 13 13 12 12 12 11 11 11 10 17 20 21 21 22 23 22 20 21 22 21 20 19 18 17 17 18 18 20 21 25 26 25 24 25 28 30 31 31 31 32 32 33 31 27 25 25 24 23 17 15 14 16 18 18 19 17 17 16 15 14 13 14 13
14 14 14 14 14 15 15 15 15 15 15 15 15 15 14 14 14 14 14 14 13 13 12 12 12 11 11 11 11 10 10 16 20 21 22 23 24 24 21 21 21 21 21 20 19 18 17 17 17 17 18 20 22 23 24 25 24 24 25 26 27 29 31 32 32 32 29 26 23 24 20 17 14 14 18 20 18 18 18 18 15 15 14 13 13
13 13 13 13 14 14 14 13 13 13 12 12 12 11 11 12 12 12 12 11 11 11 10 10 11 11 12 12 11 11 10 18 20 21 22 23 24 24 19 20 20 20 19 19 19 19 18 18 17 17 18 19 20 22 22 23 25 26 26 26 27 26 27 28 28 29 29 29 26 22 21 20 17 14 16 18 18 18 18 18 17 16 16 14 13
12 11 12 12 12 12 11 10 9 9 8 9 9 9 9 9 9 9 9 9 9 9 9 10 10 10 10 10 10 9 8 17 18 20 21 22 23 18 17 17 17 18 18 17 17 18 18 18 18 18 19 19 24 27 27 23 24 25 25 26 26 27 27 29 30 31 29 28 28 27 25 23 25 18 17 17 18 19 22 21 20 20 18 16 14
10 10 10 10 10 8 6 6 6 6 7 7 6 6 6 6 6 6 5 5 5 5 6 7 7 7 7 7 7 7 8 13 17 19 20 21 20 15 15 15 16 16 15 16 16 16 16 17 18 18 19 18 23 26 28 28 25 25 24 24 25 26 26 27 31 32 33 32 32 32 32 32 31 30 32 28 22 23 20 18 18 19 16 14 15
8 8 9 7 5 4 4 5 5 5 4 4 4 4 4 4 3 4 3 3 3 4 4 5 5 5 5 5 6 6 6 10 16 16 17 18 17 12 13 13 14 14 14 14 15 16 17 20 20 17 17 17 24 24 25 26 25 25 25 24 24 24 25 26 26 28 32 33 33 33 33 33 33 32 31 31 29 29 19 16 18 18 16 15 13
7 6 5 3 2 2 3 3 3 2 2 2 2 1 1 1 2 2 2 2 2 2 2 2 2 3 3 3 8 4 3 6 13 14 15 17 13 11 11 12 12 13 13 13 14 14 13 16 19 18 18 19 24 25 26 24 24 25 24 24 24 24 25 26 26 26 27 28 29 30 31 32 31 30 30 31 29 26 18 18 20 17 15 15 15
5 2 1 1 1 2 1 1 1 0 0 0 0 0 1 0 0 -0 0 0 -0 -0 -0 -0 -0 -0 1 1 1 2 1 2 4 13 14 16 17 10 11 11 10 11 11 11 12 14 14 14 15 20 21 22 23 24 25 27 23 24 24 24 23 24 25 26 26 26 26 27 27 28 28 29 30 31 30 29 28 25 18 15 17 19 17 15 16
1 1 1 0 -1 -1 -1 -1 -1 -1 -1 -1 -1 -1 -1 -1 -1 -1 -2 -1 -2 -2 -2 -2 -1 -1 -1 -0 0 1 1 1 2 12 13 14 15 14 9 11 11 12 12 12 12 12 12 11 10 16 20 20 21 21 22 23 24 24 23 23 23 24 28 25 26 28 27 27 27 28 28 29 29 30 30 30 28 26 22 19 15 16 17 16 15
0 -1 -1 -2 -2 -3 -3 -3 -2 -2 -2 -2 -3 -3 -2 -2 -2 -3 -2 -3 -3 -3 -3 -3 -3 -3 -2 -2 -1 -1 2 5 -0 7 11 13 14 15 8 8 10 10 10 10 11 10 10 11 11 16 20 21 22 22 23 23 24 21 22 28 28 29 27 26 26 26 26 26 26 26 26 27 27 28 29 29 29 28 25 20 18 16 16 19 16
-2 -2 -3 -3 -4 -4 -4 -4 -4 -4 -4 -3 -4 -4 -3 -3 -4 -3 -4 -4 -4 -4 -4 -4 -4 -4 -4 -3 -3 -2 -2 -0 6 2 10 12 14 14 14 12 15 9 8 7 7 7 7 8 8 15 18 20 21 23 24 24 23 21 26 26 28 29 29 26 26 25 25 26 26 26 26 26 26 26 27 27 28 29 27 26 23 21 21 20 19
-3 -4 -4 -5 -5 -5 -5 -5 -5 -5 -5 -4 -4 -5 -5 -5 -4 -4 -4 -4 -5 -5 -5 -5 -5 -6 -6 -5 -4 -4 -3 -3 3 8 5 12 13 15 15 16 15 9 8 6 7 5 6 7 10 17 19 20 22 23 24 24 21 24 25 25 28 30 28 26 26 25 25 25 25 25 26 26 26 25 25 26 26 27 27 28 26 24 22 24 22
-5 -6 -6 -6 -6 -6 -6 -6 -6 -6 -6 -5 -5 -5 -5 -6 -5 -5 -5 -6 -6 -7 -7 -6 -7 -7 -7 -6 -6 -5 -4 -3 -3 2 10 11 13 14 14 15 15 15 6 6 7 6 11 16 17 18 19 20 21 22 22 22 25 25 25 24 26 26 28 27 26 26 25 25 25 25 26 26 25 26 25 25 25 26 25 24 25 25 26 26 24
-7 -7 -7 -7 -7 -6 -6 -6 -6 -6 -6 -5 -5 -5 -5 -6 -6 -6 -7 -7 -8 -8 -8 -8 -7 -7 -7 -6 -6 -5 -4 -3 -3 -2 3 6 7 11 13 14 14 14 13 10 15 16 17 17 17 17 17 16 13 16 17 21 24 24 24 24 24 24 26 27 27 26 25 25 25 25 25 26 26 25 25 25 25 24 24 23 20 18 18 18 17
-7 -7 -7 -7 -7 -6 -7 -6 -5 -5 -6 -6 -5 -5 -5 -6 -7 -7 -8 -8 -9 -8 -8 -7 -7 -6 -6 -5 -4 -3 -2 -1 -0 0 1 0 0 2 3 4 10 13 7 5 9 6 6 9 10 15 17 19 19 20 21 21 22 24 23 22 22 22 23 25 26 26 26 25 25 25 25 25 26 26 25 25 24 25 25 23 21 18 17 17 16
-7 -8 -8 -7 -6 -6 -6 -5 -5 -6 -6 -7 -7 -7 -7 -7 -8 -8 -8 -8 -8 -7 -6 -5 -4 -3 -2 -1 0 1 2 2 2 3 3 3 3 4 4 4 4 4 4 4 5 6 7 13 14 12 13 14 15 17 17 18 22 24 23 22 22 22 23 25 27 27 27 26 25 25 25 25 24 24 24 24 24 24 25 23 21 18 16 16 14
-7 -9 -8 -7 -7 -6 -6 -6 -7 -7 -7 -7 -7 -7 -8 -8 -8 -7 -5 -4 -3 -2 -1 1 3 3 4 3 4 4 4 4 5 11 8 14 9 8 8 8 9 8 11 15 11 11 12 12 12 13 13 14 14 13 14 16 20 22 26 26 24 24 24 25 25 26 27 26 26 25 25 24 23 23 23 22 23 23 23 22 21 18 16 16 15
-9 -8 -7 -7 -7 -7 -6 -7 -7 -7 -7 -8 -8 -8 -3 6 4 -0 -1 7 11 13 13 5 6 6 6 7 7 6 5 6 15 17 16 16 16 16 15 16 18 14 14 17 14 10 10 11 11 11 11 11 12 13 14 15 17 20 20 23 23 23 24 24 25 26 27 27 26 25 25 24 23 22 22 21 21 21 21 22 19 17 15 15 15
-7 -7 -7 -7 -7 -6 -7 -7 -7 -7 -7 -7 -8 -8 -8 -7 5 10 11 11 12 13 14 15 15 15 9 6 9 15 16 16 16 16 16 15 16 16 17 19 18 19 19 13 11 10 10 10 10 11 11 12 12 12 14 16 17 19 19 20 21 23 24 24 25 27 27 27 26 25 25 24 23 22 21 21 20 20 20 20 18 16 15 15 14
-8 -8 -7 -7 -7 -7 -7 -7 -7 -7 -7 -7 -8 -8 -8 -9 -8 2 8 10 11 12 13 14 14 15 15 12 10 7 11 15 16 16 16 16 15 16 18 19 18 18 19 19 12 10 10 10 11 11 12 12 12 12 13 13 14 16 18 19 20 21 23 24 26 26 26 27 26 25 24 23 22 21 20 20 19 18 18 17 16 15 15 14 14
-8 -9 -8 -7 -7 -6 -7 -7 -7 -7 -8 -8 -8 -8 -8 -9 -9 -9 -6 7 10 11 12 12 13 13 14 15 15 14 14 15 16 14 14 16 18 18 18 18 18 19 19 14 11 10 10 10 9 10 10 10 11 12 12 13 14 16 18 20 20 20 22 25 27 26 26 26 26 25 24 23 22 20 19 19 18 16 16 15 15 14 14 13 12
-10 -8 -7 -7 -7 -7 -7 -7 -7 -8 -8 -8 -8 -8 -8 -8 -8 -7 -7 -7 -7 1 7 9 11 12 12 13 14 15 15 16 16 17 17 17 18 18 18 14 18 19 17 11 11 10 10 10 11 11 11 11 12 12 13 14 16 17 18 20 20 21 23 26 27 26 26 26 26 24 23 22 21 19 18 18 17 16 15 14 14 13 13 13 12
-9 -7 -6 -6 -7 -7 -7 -7 -7 -8 -8 -8 -8 -7 -7 -6 -6 -6 -7 -7 -7 -7 -7 -6 4 10 5 8 12 15 15 15 16 16 17 17 18 18 17 11 10 10 10 10 10 10 10 10 10 11 11 11 12 13 13 14 16 17 19 20 20 21 22 23 23 23 24 24 24 24 22 22 20 19 18 17 16 15 13 13 13 12 12 12 11
-9 -8 -8 -8 -8 -8 -7 -8 -8 -7 -8 -7 -6 -6 -6 -6 -6 -7 -6 -6 -7 -7 -6 -6 -5 6 11 12 12 12 14 15 15 16 17 18 17 17 10 8 9 9 10 10 11 12 13 13 12 11 11 11 11 12 13 14 16 17 20 21 21 21 22 23 23 23 24 24 24 23 22 21 20 18 17 16 15 14 13 12 12 12 12 12 11
-9 -8 -8 -8 -8 -7 -7 -7 -8 -7 -2 -5 -6 -6 -6 -6 -6 -6 -7 -7 -7 -6 -6 -5 -5 -4 3 -0 3 10 13 14 15 16 16 16 16 11 8 8 8 9 11 12 12 12 13 14 14 13 12 12 12 12 14 15 16 17 20 21 21 21 22 23 23 23 23 23 22 22 21 19 19 17 16 15 14 13 13 12 12 12 12 12 12
-10 -9 -8 -8 -7 -7 -7 -7 -7 -6 -7 -7 -7 -7 -7 -7 -7 -7 -7 -7 -6 -5 -6 -6 -1 -5 -5 -3 3 3 2 11 13 11 10 10 5 6 8 9 8 8 8 9 11 12 13 15 16 15 13 13 13 13 14 15 17 19 20 21 20 20 22 22 23 22 22 21 20 20 19 18 18 17 15 14 13 13 12 11 11 11 11 12 11
-9 -7 -6 -6 -2 -6 -6 -7 -8 -8 -8 -8 -8 -7 -7 -7 -7 -7 -7 -7 -6 -6 -5 -5 -5 -4 -3 -2 -2 2 6 3 1 -1 -1 -0 1 3 4 4 5 6 7 8 9 11 12 14 15 16 15 14 14 14 15 16 18 19 21 20 20 21 21 21 21 21 20 19 19 18 18 17 17 16 15 14 13 12 11 11 11 11 10 10 10
-9 -9 -8 -7 -7 -8 -7 -7 -8 -9 -8 -8 -8 -8 -7 -8 -8 -7 -7 -7 -6 -6 -5 -5 -5 -4 -3 -3 -1 2 2 -0 -3 -3 -3 -2 -1 1 2 3 3 3 4 6 7 9 11 12 14 17 18 17 17 18 19 20 20 20 20 19 19 19 20 20 20 19 19 18 17 17 16 16 15 14 14 13 12 11 11 10 10 10 10 10 9
-12 -10 -8 -7 -7 -8 -9 -9 -9 -9 -9 -8 -8 -8 -8 -7 -6 -6 -7 -7 -6 -6 -6 -5 -5 -5 -4 -1 9 8 1 -2 -5 -5 -4 -3 -2 -1 -0 1 1 2 3 4 5 7 9 11 14 17 19 20 20 20 19 20 20 19 19 18 19 19 19 19 19 18 17 16 15 15 14 14 13 13 12 11 13 12 10 10 10 10 9 9 9
-12 -11 -10 -10 -9 -10 -10 -10 -9 -8 -9 -8 -9 -8 -7 -7 -7 -7 -7 -7 -7 -6 -6 -6 -7 -6 -1 7 8 9 -0 -5 -5 -5 -5 -3 -3 -2 -2 -1 -1 0 1 3 4 6 7 10 13 15 15 16 16 16 15 15 16 18 18 17 17 17 16 16 16 15 15 14 13 13 13 12 12 12 11 14 10 9 9 9 9 9 8 8 8
-11 -10 -10 -10 -10 -11 -11 -11 -10 -10 -9 -9 -9 -7 -7 -8 -8 -8 -8 -7 -7 -7 -7 -7 -7 -6 -6 4 -1 2 -6 -6 -5 -5 -5 -5 -4 -4 -3 -3 -2 -1 1 2 4 6 8 9 11 13 13 14 14 15 16 17 17 16 16 16 16 15 14 13 13 13 12 12 12 11 11 12 11 10 10 9 9 8 8 8 8 7 7 7 7
-11 -11 -11 -11 -11 -11 -11 -11 -11 -10 -10 -8 -8 -8 -8 -9 -9 -9 -9 -9 -8 -7 -7 -7 -7 -7 -8 -7 -5 -7 -7 -7 -7 -6 -6 -5 -5 -5 -5 -4 -3 -1 -0 1 2 4 6 7 9 11 11 12 13 14 14 15 15 15 15 14 14 13 13 12 11 11 11 11 10 10 10 10 10 9 8 8 8 7 7 7 7 7 6 6 6
-13 -12 -12 -13 -13 -13 -12 -11 -10 -10 -9 -10 -11 -11 -10 -10 -10 -10 -9 -9 -8 -8 -8 -7 -7 -7 -8 -8 -8 -8 -8 -8 -6 -6 -6 -6 -6 -6 -5 -4 -3 -2 -1 0 1 3 4 5 7 8 9 10 11 12 12 13 13 14 13 13 12 12 11 11 11 11 10 10 9 9 9 8 8 8 7 7 7 7 6 6 6 6 6 6 6
-12 -13 -13 -13 -13 -12 -12 -12 -10 -11 -12 -12 -12 -13 -12 -12 -11 -10 -9 -9 -8 -8 -8 -8 -8 -8 -8 -8 -8 -7 -8 -8 -8 -7 -6 -7 -6 -6 -5 -4 -3 -2 -1 -0 1 1 2 3 4 4 5 7 8 8 10 10 11 12 12 11 11 11 11 10 10 10 10 9 9 8 8 7 7 7 7 6 6 6 6 6 6 6 6 5 5
-14 -14 -14 -14 -14 -13 -12 -12 -13 -13 -13 -13 -13 -13 -12 -12 -11 -10 -9 -9 -9 -8 -8 -9 -9 -9 -8 -8 -8 -8 -7 -7 -7 -7 -7 -7 -6 -6 -5 -4 -3 -2 -2 -1 -0 0 1 1 2 3 4 4 5 6 7 8 9 9 10 10 10 10 10 10 10 9 9 9 9 8 7 7 6 6 6 6 6 6 6 5 5 5 5 5 5
-15 -15 -16 -14 -15 -15 -14 -15 -14 -12 -14 -14 -14 -12 -12 -12 -12 -11 -11 -10 -10 -9 -9 -9 -9 -9 -8 -8 -7 -7 -7 -7 -6 -6 -6 -6 -6 -5 -5 -4 -3 -2 -1 -1 -0 0 1 1 1 2 3 3 4 5 6 7 7 8 8 8 9 9 9 9 9 9 9 9 8 7 7 6 6 6 6 5 5 5 5 5 5 5 5 5 6
-15 -15 -16 -16 -16 -15 -16 -15 -14 -16 -16 -15 -14 -15 -14 -14 -13 -13 -12 -12 -11 -10 -11 -10 -10 -10 -9 -9 -8 -7 -7 -6 -6 -6 -6 -5 -5 -5 -4 -3 -3 -2 -1 -1 1 2 2 2 2 2 3 3 4 5 6 6 7 7 8 8 9 9 9 9 8 8 8 8 7 7 6 6 6 5 5 5 5 5 4 4 4 4 5 5 6
-17 -16 -17 -17 -17 -16 -16 -17 -17 -18 -17 -16 -16 -16 -15 -14 -15 -14 -13 -13 -13 -12 -12 -11 -11 -11 -10 -10 -9 -9 -8 -8 -7 -7 -6 -6 -5 -5 -4 -4 -3 -3 -2 -1 -0 1 2 3 4 4 4 4 5 5 6 6 7 7 8 8 8 9 9 9 8 8 7 7 6 6 6 5 5 5 4 4 4 4 4 4 4 4 4 5 5
-16 -17 -17 -18 -18 -17 -18 -20 -19 -19 -20 -18 -18 -17 -16 -16 -16 -15 -14 -15 -14 -14 -12 -13 -13 -12 -11 -11 -9 -9 -9 -9 -8 -7 -7 -7 -6 -6 -6 -5 -5 -4 -4 -3 -2 -1 -0 1 2 4 5 5 6 6 6 7 7 7 8 8 8 8 8 7 7 7 7 6 6 5 5 4 4 4 4 4 4 3 3 3 4 4 4 3 3